weather.gov     
National Weather Service

Regional Weather Roundup
NWS Homepage
This page is being discontinued on March 12, 2014.
The same data is available at this site. Please update your bookmarks.
Thank you, and we apologize for the inconvenience.
Please send an email to SR-SRH.Webmaster@noaa.gov with any concerns.


Current Version
Previous Version:    01  02  03  04  05  06  07  08  09  10  11  12  13  14  15  16  17  18  19  20  21  22  23  24  25  26  27  28  29  30  
   31  32  33  34  35  36  37  38  39  40  41  42  43  44  45  46  47  48  49  50  51  52  53  54  55  56  57  58  59  60  
[Printable]
922
ASUS44 KFWD 201615
RWRTX
NORTH TEXAS HOURLY WEATHER ROUNDUP
NATIONAL WEATHER SERVICE FORT WORTH TX
1100 AM CDT SUN APR 20 2014

NOTE: "FAIR" INDICATES FEW OR NO CLOUDS BELOW 12,000 FEET WITH NO
SIGNIFICANT WEATHER AND/OR OBSTRUCTIONS TO VISIBILITY.

TXZ118-119-201700-
DALLAS/FORT WORTH METROPLEX

CITY           SKY/WX    TMP DP  RH WIND       PRES   REMARKS
DFW AIRPORT    PTSUNNY   75  55  49 S13       30.12R
DALLAS LOVE    CLOUDY    74  54  49 S13       30.13R
FTW MEACHAM    MOSUNNY   75  54  47 S14G22    30.11R
DAL-EXECUTIVE  MOSUNNY   75  55  49 S9G20     30.12R
FTW-ALLIANCE   MOSUNNY   72  54  53 S14       30.12R
FTW-NAS-JRB    PTSUNNY   76  51  41 S13G22    30.16R
FTW-SPINKS     MOSUNNY  N/A N/A N/A S10       30.14R
ARLINGTON      MOSUNNY   74  52  46 SE20      30.12R
GRAND PRAIRIE  SUNNY     73  54  49 S10       30.14R
ADDISON        PTSUNNY   73  52  46 S13       30.13R
MESQUITE       SUNNY     72  57  60 S9        30.15R
LANCASTER      MOSUNNY   72  55  56 S7        30.15R
$$

TXZ091>094-102>105-117-120-121-131>134-201700-
NORTH CENTRAL TEXAS

CITY           SKY/WX    TMP DP  RH WIND       PRES   REMARKS
SHRMAN/DENISON CLOUDY    69  54  59 SE7       30.13F
GAINESVILLE    CLOUDY    65  58  76 S7        30.16R
BOWIE          CLOUDY    66  58  73 SE7       30.14R
BRIDGEPORT     PTSUNNY   70  53  54 S7        30.15R
DECATUR        MOSUNNY   69  56  62 S10       30.14R
DENTON         PTSUNNY   71  56  58 S10       30.13R
MCKINNEY       CLOUDY    72  56  57 SE10      30.14R
GREENVILLE     PTSUNNY   73  54  49 S10       30.16S
ROCKWALL       PTSUNNY   72  56  57 SE10      30.13S
TERRELL        PTSUNNY   74  58  57 SE14      30.15S
WAXAHACHIE     MOSUNNY   74  53  48 S13G18    30.14R
CLEBURNE       MOSUNNY   72  59  64 S17       30.15R
GRANBURY       MOSUNNY   76  53  44 S15G23    30.13R
$$

TXZ083>090-098>101-113>116-127>130-139>142-154-155-201700-
WESTERN NORTH TEXAS

CITY           SKY/WX    TMP DP  RH WIND       PRES   REMARKS
WICHITA FALLS  CLOUDY    67  55  65 S13G21    30.11R
WF-KICKAPOO    CLOUDY    66  55  65 S6        30.12S
VERNON           N/A    N/A N/A N/A SE10      30.10R
ABILENE        CLOUDY    67  56  67 S7        30.13S
ABILENE-DYESS  CLOUDY    66  57  72 S12       30.12R
BRECKENRIDGE   CLOUDY    71  54  54 S9        30.12R
GRAHAM         PTSUNNY   72  54  53 S10G17    30.10F
MINERAL WELLS  CLOUDY    69  58  67 VRB3      30.12R
STEPHENVILLE   MOSUNNY   72  56  58 S13       30.15R
COMANCHE       MOSUNNY   71  59  65 S12G17    30.12R
BROWNWOOD      PTSUNNY   68  59  73 SW13      30.13R
COLEMAN        PTSUNNY   70  57  62 S6        30.13R
BRADY          MOSUNNY   70  57  64 S12       30.11R
$$

TXZ143>147-156>162-174-175-201700-
CENTRAL TEXAS

CITY           SKY/WX    TMP DP  RH WIND       PRES   REMARKS
WACO           LGT RAIN  65  60  84 S12       30.15S
WACO-TSTC      MOSUNNY   66  59  77 SE7       30.14F
WACO-MCGREGOR  PTSUNNY   66  59  77 S14       30.16R
HILLSBORO      MOSUNNY   73  55  52 S16       30.15R
CORSICANA      PTSUNNY   74  59  59 S13       30.15S
MEXIA          CLOUDY    70  59  68 SE9       30.15R
HEARNE         PTSUNNY   71  61  72 SE10      30.16F
CAMERON        MOSUNNY   71  60  69 S7        30.16R
TEMPLE         PTSUNNY   66  57  72 S10       30.18S
KILLEEN        TSTM      64  61  88 SE13      30.13F
KILLEEN-SKYLRK PTSUNNY  N/A N/A N/A SE16      30.12S
FORT HOOD      PTSUNNY   67  60  78 SE10      30.14S THUNDER
GATESVILLE     PTSUNNY   66  61  82 S9        30.16R
HAMILTON       PTSUNNY   69  59  72 S18G26    30.14R
LAMPASAS       CLOUDY    65  61  85 SE8       30.13F
$$

TXZ095>097-106>112-122>126-135>138-148>153-164>167-201700-
EAST TEXAS

CITY           SKY/WX    TMP DP  RH WIND       PRES   REMARKS
PARIS          PTSUNNY   70  57  64 S5        30.17S
SULPHUR SPRNGS SUNNY     73  57  56 S9        30.18S
CLARKSVILLE    PTSUNNY   72  58  63 CALM      30.18R
MOUNT PLEASANT MOSUNNY   74  58  57 S6        30.18S
GILMER         MOSUNNY   73  59  60 S10       30.18F
MINEOLA        MOSUNNY   73  57  56 S9        30.17R
TYLER          SUNNY     74  57  55 S9        30.15F
LONGVIEW       MOSUNNY   74  58  57 VRB6      30.17S
MARSHALL       PTSUNNY   73  58  60 SE3       30.20S
ATHENS         MOSUNNY   72  55  56 S13       30.14S
PALESTINE      PTSUNNY   71  56  59 S8        30.19R
JACKSONVILLE   SUNNY     72  54  52 S8        30.19F
HENDERSON      SUNNY     75  54  46 S7        30.18F
NACOGDOCHES    SUNNY     73  57  56 S5        30.19F
LUFKIN         SUNNY     77  57  50 SE6       30.19S
$$

SUPPLEMENTAL OBSERVATIONS (CENTRAL)

CITY           SKY/WX    TMP DP  RH WIND       PRES   REMARKS
LAKE TEXOMA      N/A     66  59  77 E3          N/A
CADDO GRASSLND   N/A     72  57  60 S8          N/A
ATHENS           N/A     75  54  46 S14         N/A
PALESTINE        N/A     73  59  60 S5          N/A
LAKE LIMESTONE   N/A     72  61  68 S6          N/A
MCGREGOR         N/A     68  61  77 S10G18      N/A
TEMPLE           N/A     72  61  68 S15         N/A
$$

SUPPLEMENTAL OBSERVATIONS (WEST)

CITY           SKY/WX    TMP DP  RH WIND       PRES   REMARKS
MILLERS CREEK    N/A     72  55  56 SW14        N/A
POSSUM KINGDOM   N/A     72  52  49 S8G17       N/A
LBJ GRASSLAND    N/A     70  57  64 S7          N/A
GRANBURY         N/A     75  52  43 S16G26      N/A
COMANCHE         N/A     72  59  64 S10         N/A
HAMBY            N/A     66  54  63 S7          N/A
IVIE RESERVOIR   N/A     70  57  64 S8          N/A
COLORADO BEND    N/A     66  61  82 S10         N/A
$$

SUPPLEMENTAL OBSERVATIONS (EAST)

CITY           SKY/WX    TMP DP  RH WIND       PRES   REMARKS
CADDO LAKE       N/A     79  57  47 SE2         N/A
LUFKIN           N/A     75  57  53 MISG        N/A
$$

SUPPLEMENTAL OBSERVATIONS ARE A COLLECTION OF AUTOMATED INSTRUMENTS
THAT ARE MAINTAINED BY A VARIETY OF FEDERAL AND STATE AGENCIES.
CERTAIN ELEMENTS...SUCH AS HUMIDITY VALUES AND SUSTAINED WIND
SPEEDS...MAY BE APPROXIMATED.





U.S. Dept. of Commerce
NOAA National Weather Service
1325 East West Highway
Silver Spring, MD 20910
E-mail: w-nws.webmaster@noaa.gov
Page last modified: May 16, 2007
NATIONAL WEATHER SERVICE: for Safety, for Work, for Fun - FOR LIFE